TimeEST,TemperatureF,Dew PointF,Humidity,Sea Level PressureIn,VisibilityMPH,Wind Direction,Wind SpeedMPH,Gust SpeedMPH,PrecipitationIn,Events,Conditions,WindDirDegrees,DateUTC
12:56 AM,43.0,37.9,82,29.86,8.0,North,10.4,-,N/A,,Overcast,350,2012-11-07 05:56:00
1:56 AM,43.0,37.9,82,29.86,10.0,NNW,12.7,-,0.00,,Overcast,330,2012-11-07 06:56:00
2:26 AM,42.8,37.4,81,29.85,10.0,NNW,10.4,-,N/A,,Overcast,330,2012-11-07 07:26:00
2:56 AM,42.1,39.0,89,29.84,4.0,NNW,10.4,-,0.00,Rain,Light Rain,340,2012-11-07 07:56:00
3:56 AM,43.0,39.0,86,29.84,8.0,NNW,9.2,-,0.00,,Overcast,330,2012-11-07 08:56:00
4:56 AM,43.0,39.0,86,29.85,9.0,NNW,11.5,-,0.01,,Overcast,330,2012-11-07 09:56:00
5:56 AM,42.1,39.0,89,29.85,4.0,NNW,9.2,-,0.00,Rain,Light Rain,330,2012-11-07 10:56:00
6:56 AM,43.0,39.0,86,29.85,7.0,NNW,10.4,-,0.00,,Overcast,340,2012-11-07 11:56:00
7:56 AM,43.0,39.0,86,29.87,10.0,NNW,9.2,-,N/A,,Overcast,330,2012-11-07 12:56:00
8:56 AM,45.0,39.9,82,29.88,10.0,NNW,10.4,-,N/A,,Overcast,340,2012-11-07 13:56:00
9:11 AM,44.6,39.2,81,29.87,10.0,NNW,10.4,-,N/A,,Overcast,340,2012-11-07 14:11:00
9:46 AM,46.4,41.0,81,29.86,10.0,NNW,8.1,-,N/A,,Overcast,340,2012-11-07 14:46:00
9:56 AM,46.9,41.0,80,29.87,10.0,NNW,11.5,-,N/A,,Overcast,340,2012-11-07 14:56:00
10:56 AM,48.9,41.0,74,29.86,10.0,NNW,12.7,-,N/A,,Overcast,340,2012-11-07 15:56:00
11:12 AM,50.0,41.0,71,29.85,10.0,North,12.7,-,N/A,,Overcast,360,2012-11-07 16:12:00
11:56 AM,52.0,41.0,66,29.84,10.0,NNW,15.0,-,N/A,,Overcast,330,2012-11-07 16:56:00
12:56 PM,54.0,41.0,62,29.82,10.0,NNW,13.8,-,N/A,,Overcast,330,2012-11-07 17:56:00
1:03 PM,53.6,39.2,58,29.81,10.0,NNW,15.0,18.4,N/A,,Overcast,340,2012-11-07 18:03:00
1:24 PM,51.8,39.2,62,29.81,10.0,NW,12.7,19.6,N/A,,Overcast,320,2012-11-07 18:24:00
1:56 PM,52.0,39.9,63,29.82,10.0,NNW,12.7,-,N/A,,Overcast,330,2012-11-07 18:56:00
2:36 PM,53.6,39.2,58,29.82,10.0,NNW,12.7,-,N/A,,Overcast,330,2012-11-07 19:36:00
2:47 PM,51.8,39.2,62,29.82,10.0,NNW,12.7,-,N/A,,Mostly Cloudy,340,2012-11-07 19:47:00
2:56 PM,51.1,39.0,63,29.83,10.0,NNW,11.5,-,N/A,,Scattered Clouds,330,2012-11-07 19:56:00
3:56 PM,51.1,37.9,61,29.84,10.0,NNW,12.7,-,N/A,,Overcast,340,2012-11-07 20:56:00
4:56 PM,48.9,37.0,64,29.86,10.0,NNW,10.4,-,N/A,,Overcast,340,2012-11-07 21:56:00
5:56 PM,46.9,36.0,66,29.88,10.0,North,10.4,-,N/A,,Overcast,360,2012-11-07 22:56:00
6:56 PM,46.0,36.0,68,29.90,10.0,NNW,9.2,-,N/A,,Overcast,340,2012-11-07 23:56:00
7:56 PM,45.0,35.1,68,29.91,10.0,NW,6.9,-,N/A,,Overcast,320,2012-11-08 00:56:00
8:56 PM,41.0,35.1,79,29.92,10.0,Variable,3.5,-,N/A,,Partly Cloudy,0,2012-11-08 01:56:00
9:56 PM,41.0,34.0,76,29.93,10.0,NW,6.9,-,N/A,,Clear,320,2012-11-08 02:56:00
10:56 PM,39.0,33.1,79,29.94,10.0,NW,4.6,-,N/A,,Clear,310,2012-11-08 03:56:00
11:56 PM,39.0,34.0,82,29.94,10.0,West,3.5,-,N/A,,Scattered Clouds,260,2012-11-08 04:56:00